CYGFM04

Last updated on Sun Apr 12 2026 00:02:27 GMT+0000 (Coordinated Universal Time)

1 41885U 16078B 26101.00471237 .00028490 00000+0 36726-3 0 9991 2 41885 34.9338 315.2677 0007569 284.9329 75.0557 15.57954227518508
UTC large
Height (km)
Speed (km/s)
/
Latitude / Longitude
Inclination (degrees)
Orbital Period (minutes)
Azimuth
Elevation
Range (km)
Doppler Factor

Next 0 passes for location: London (51.5072 / 0.1276)

Sorry there are no passes over London.
CYGFM04